Wind_Speed
3 17 21 22 24 26 21 22 24 25 23 21 22 24 26 27 26 23 22 23 19 18 19 15 13 13 9 12 11 10 9 7 7
5 6 17 22 25 27 25 24 26 27 23 22 23 24 27 29 28 25 24 24 21 19 18 15 15 13 11 11 12 11 10 7 6
13 7 7 14 21 25 27 26 27 27 26 20 22 26 27 29 29 29 27 24 26 23 18 17 17 15 15 12 11 12 11 11 10
20 16 10 12 15 18 23 25 28 29 30 27 22 26 26 27 29 30 29 26 24 24 20 19 17 14 16 15 13 13 14 13 13
20 20 19 12 14 16 18 23 27 28 30 34 27 24 26 25 26 29 32 32 28 25 23 20 18 17 19 18 16 14 15 15 13
21 22 23 18 6 12 17 21 25 28 28 31 31 27 25 26 26 28 31 32 30 28 27 23 22 19 18 17 16 15 14 15 14
20 21 22 22 17 8 9 17 22 26 26 28 32 30 27 28 26 26 28 30 31 30 30 27 24 23 21 20 19 20 19 18 17
21 23 24 22 22 19 8 10 17 23 25 26 28 32 31 27 25 24 26 28 30 31 31 31 30 27 23 23 22 21 21 18 17
20 21 22 22 19 18 16 10 10 16 21 23 25 30 36 30 24 25 24 27 29 30 31 33 32 31 30 28 27 24 21 21 20
17 21 21 22 20 17 15 14 11 12 17 19 23 24 30 35 33 27 25 25 27 29 30 31 31 30 29 29 26 24 23 22 22
17 21 23 24 22 19 17 14 12 11 13 19 20 23 26 32 32 30 28 27 27 27 28 28 29 30 29 27 26 24 24 23 23
22 22 22 23 23 19 19 19 15 11 11 11 15 20 23 26 31 31 28 28 28 28 30 29 28 29 29 28 26 25 26 27 26
30 26 27 25 23 23 20 18 17 15 11 9 8 18 20 21 24 30 33 27 24 24 26 25 25 26 29 28 27 25 25 31 29
30 32 31 30 29 24 22 18 17 16 15 10 10 8 14 20 22 26 31 31 32 29 31 29 28 27 26 27 26 26 29 18 24
30 32 30 31 30 31 23 17 16 17 18 15 15 14 13 13 20 26 26 28 31 33 31 31 34 30 28 29 31 27 29 28 23
28 29 29 26 25 30 28 21 17 18 15 16 17 16 15 16 15 16 24 27 29 31 31 29 29 31 30 31 32 29 25 23 22
28 27 29 25 23 25 29 28 22 21 18 16 16 16 17 15 18 17 18 19 25 24 29 31 29 32 32 32 29 27 25 24 21
30 28 28 26 24 24 27 28 29 25 21 18 18 18 18 19 18 18 24 26 28 27 29 32 32 31 32 33 29 27 22 21 21
29 28 27 27 28 27 27 26 25 28 24 22 20 21 21 21 20 22 25 29 35 34 32 29 30 28 26 27 22 19 20 21 22
30 29 27 27 28 28 26 25 24 24 26 26 25 25 25 26 24 25 28 31 31 38 35 33 32 28 26 24 21 22 20 22 21
Wind_Direction
215 211 214 219 227 228 234 226 218 215 215 217 212 205 200 201 201 200 202 200 204 200 204 217 222 218 222 218 226 241 246 252 257
15 220 222 226 227 229 233 226 223 219 216 219 214 211 207 205 208 204 200 198 198 200 209 212 211 221 228 228 228 231 244 254 255
8 350 266 232 233 235 233 230 226 222 220 226 224 215 212 212 214 212 205 208 213 211 218 217 219 228 224 219 219 227 246 256 261
358 345 330 259 244 238 234 232 230 225 222 221 224 222 219 217 216 215 212 210 210 214 217 216 219 222 216 219 227 239 253 252 257
3 1 351 311 254 240 232 229 231 231 223 224 226 228 225 222 223 221 221 222 221 218 217 220 218 234 229 229 234 241 246 249 254
12 7 7 9 320 248 242 234 232 234 227 225 226 227 225 226 227 228 225 224 223 221 217 221 220 219 221 226 232 242 247 238 242
16 16 14 14 16 345 257 247 241 241 236 230 227 227 229 226 226 229 230 226 226 221 219 222 226 228 234 237 242 249 248 240 240
15 17 14 13 13 10 340 269 261 253 249 244 234 229 228 231 227 228 229 231 229 227 227 231 234 237 239 240 249 253 241 241 244
4 5 6 5 3 8 6 342 265 259 261 253 245 235 231 230 231 231 230 230 232 233 234 236 238 243 245 247 251 246 242 243 247
1 356 353 354 355 353 3 355 344 267 253 253 252 244 236 232 234 233 233 232 232 234 236 241 243 243 242 245 243 241 234 236 242
350 348 349 350 350 351 349 347 330 336 260 250 246 247 242 235 233 235 232 235 237 237 238 240 243 243 240 238 236 234 231 229 238
335 332 331 338 341 341 344 340 327 302 320 260 249 244 242 238 236 234 236 233 236 239 241 241 240 239 237 234 238 242 244 242 241
318 317 316 317 323 328 320 331 329 317 294 309 282 248 246 243 241 236 237 239 235 240 238 236 236 238 235 235 242 243 250 254 249
306 307 304 303 305 307 318 308 316 311 305 296 278 289 251 243 237 236 236 240 242 247 246 243 240 238 237 237 239 242 239 257 237
301 304 306 297 291 292 295 299 298 296 299 293 280 270 268 264 240 236 240 237 241 242 244 242 242 238 234 240 236 239 243 251 248
295 295 296 298 291 285 282 283 284 290 290 288 272 265 276 272 262 239 238 239 234 239 239 235 235 236 235 237 236 240 246 244 245
294 292 292 293 291 287 282 276 274 273 287 290 280 271 255 268 258 259 257 257 242 232 237 232 232 234 236 233 233 236 234 242 239
290 288 287 289 284 283 288 278 270 267 270 283 283 278 264 265 263 254 254 252 246 243 243 237 231 232 235 230 229 230 233 237 234
291 285 284 285 284 281 287 283 267 262 264 269 280 276 272 272 269 269 260 247 239 240 242 233 228 232 235 233 230 223 227 227 225
290 294 281 276 284 285 282 283 270 256 261 265 271 276 271 270 270 269 263 260 244 237 233 229 223 220 215 220 223 223 224 216 218
Height
1487 1490 1492 1494 1498 1501 1504 1507 1511 1514 1517 1520 1523 1526 1530 1533 1537 1541 1545 1548 1552 1555 1558 1560 1563 1565 1567 1568 1569 1570 1570 1572 1573
1487 1487 1490 1492 1493 1496 1500 1504 1506 1510 1513 1517 1520 1523 1527 1530 1534 1537 1541 1546 1549 1552 1555 1557 1560 1562 1564 1566 1567 1568 1569 1570 1571
1491 1489 1488 1488 1491 1494 1496 1499 1503 1507 1510 1513 1518 1520 1523 1527 1530 1534 1538 1541 1545 1549 1552 1554 1557 1559 1561 1563 1564 1566 1567 1569 1569
1493 1490 1489 1486 1486 1488 1492 1496 1497 1502 1505 1509 1513 1517 1520 1523 1527 1531 1535 1538 1541 1545 1549 1551 1553 1556 1558 1560 1561 1563 1565 1566 1566
1496 1491 1486 1483 1484 1485 1487 1489 1493 1496 1500 1504 1508 1513 1516 1519 1523 1527 1530 1533 1537 1541 1544 1547 1550 1552 1554 1556 1558 1559 1561 1563 1563
1497 1492 1487 1482 1482 1484 1485 1486 1488 1491 1495 1499 1503 1507 1511 1516 1518 1522 1525 1529 1533 1536 1539 1542 1545 1548 1550 1553 1555 1555 1556 1558 1560
1499 1495 1491 1486 1482 1483 1484 1485 1486 1488 1490 1494 1498 1503 1506 1509 1513 1517 1521 1525 1528 1532 1535 1538 1541 1543 1546 1548 1550 1551 1552 1553 1554
1500 1496 1493 1489 1486 1483 1482 1483 1484 1485 1488 1491 1494 1497 1501 1504 1508 1513 1516 1520 1524 1527 1531 1534 1536 1539 1541 1543 1544 1545 1547 1548 1550
1502 1499 1496 1493 1489 1486 1483 1481 1480 1482 1484 1487 1489 1492 1495 1501 1503 1507 1511 1514 1518 1522 1525 1528 1530 1532 1535 1536 1537 1539 1541 1542 1544
1503 1501 1497 1494 1491 1487 1483 1481 1477 1477 1478 1481 1484 1486 1489 1493 1498 1502 1505 1509 1512 1515 1518 1522 1523 1525 1527 1528 1530 1531 1534 1536 1537
1503 1501 1497 1493 1490 1486 1483 1480 1477 1475 1473 1473 1477 1481 1483 1486 1491 1495 1500 1503 1506 1509 1512 1514 1517 1519 1520 1522 1523 1525 1526 1528 1529
1501 1498 1495 1493 1489 1485 1482 1479 1476 1474 1472 1470 1471 1474 1477 1480 1484 1488 1492 1495 1499 1503 1505 1507 1509 1512 1514 1516 1518 1520 1522 1523 1522
1495 1494 1492 1489 1487 1483 1480 1478 1475 1472 1469 1467 1467 1469 1471 1474 1476 1480 1483 1488 1492 1495 1499 1500 1502 1504 1507 1510 1511 1513 1516 1518 1516
1492 1488 1485 1483 1480 1479 1477 1474 1472 1469 1468 1466 1464 1465 1466 1467 1470 1473 1476 1480 1485 1488 1491 1494 1496 1498 1501 1502 1504 1506 1508 1510 1510
1485 1480 1477 1475 1472 1471 1471 1470 1468 1466 1464 1464 1461 1460 1461 1463 1463 1466 1470 1473 1475 1479 1483 1484 1487 1490 1493 1495 1497 1500 1500 1502 1505
1479 1474 1470 1468 1464 1462 1463 1463 1462 1460 1460 1459 1458 1456 1457 1457 1459 1459 1462 1466 1468 1471 1473 1475 1478 1482 1485 1487 1490 1492 1494 1496 1496
1470 1466 1461 1460 1458 1455 1454 1455 1455 1454 1454 1454 1453 1452 1454 1455 1454 1454 1456 1459 1462 1462 1464 1467 1470 1473 1478 1482 1483 1485 1488 1491 1490
1461 1457 1453 1451 1449 1448 1446 1446 1446 1447 1447 1447 1447 1447 1448 1449 1448 1449 1450 1452 1455 1455 1458 1461 1463 1465 1470 1473 1475 1478 1482 1485 1486
1451 1447 1445 1442 1440 1439 1438 1437 1438 1438 1440 1440 1440 1440 1440 1442 1441 1442 1444 1446 1446 1448 1450 1455 1457 1461 1465 1468 1471 1474 1477 1480 1483
1441 1437 1435 1433 1431 1430 1429 1428 1428 1429 1431 1431 1431 1430 1431 1433 1434 1435 1436 1436 1437 1438 1441 1447 1451 1454 1458 1462 1466 1469 1470 1475 1478